N0KTA-2 Weather Reports


Display with metric or nautical units.
time (UTC)temp
F
wind
direction
speed
MPH
gust
MPH
rain 1hr
in
rain 24hr
in
rain mn
in
humidity
%
barometer
mb
20260502160925 61 54 1.0 2.0 0.00 0.05 0.05 38 1019.2
20260502151923 57 92 2.0 5.0 0.00 0.05 0.05 45 1019.6
20260502150926 57 68 1.0 2.0 0.00 0.05 0.05 47 1019.5
20260502122926 45 40 2.0 2.0 0.00 0.05 0.05 79 1018.6
20260502121925 45 56 1.0 3.0 0.00 0.05 0.05 80 1018.6
20260502120924 45 51 1.0 3.0 0.00 0.05 0.05 81 1018.5
20260502115925 45 30 0.0 0.0 0.00 0.05 0.05 80 1018.0
20260502114924 45 55 2.0 3.0 0.00 0.05 0.05 80 1017.9
20260502113925 45 37 1.0 3.0 0.00 0.05 0.05 82 1017.8
20260502112926 45 49 1.0 3.0 0.00 0.05 0.05 83 1017.8
20260502111925 45 34 1.0 3.0 0.00 0.05 0.05 84 1017.6
20260502110925 45 27 2.0 2.0 0.00 0.05 0.05 85 1017.4
20260502105926 45 36 1.0 2.0 0.00 0.05 0.05 86 1017.2
20260502104925 46 33 1.0 2.0 0.00 0.05 0.05 86 1017.3
20260502103926 46 36 1.0 2.0 0.00 0.05 0.05 86 1017.3
20260502102925 46 53 2.0 3.0 0.00 0.05 0.05 86 1017.2
20260502101926 47 22 1.0 3.0 0.00 0.05 0.05 87 1017.1
20260502100925 47 36 1.0 2.0 0.00 0.05 0.05 88 1017.0
20260502090925 48 17 1.0 3.0 0.00 0.05 0.05 90 1016.5
20260502070925 51 280 1.0 1.0 0.01 0.05 0.05 88 1017.3
20260502065924 51 279 1.0 1.0 0.01 0.05 0.05 89 1017.1
20260502064925 52 133 0.0 2.0 0.01 0.05 0.05 87 1015.9
20260502063924 52 21 1.0 3.0 0.02 0.04 0.04 88 1016.8
20260502062925 52 132 0.0 2.0 0.04 0.04 0.04 87 1016.6
20260502061926 52 129 0.0 2.0 0.04 0.04 0.04 87 1016.4
20260502060925 52 52 0.0 1.0 0.04 0.04 0.04 84 1016.4
20260502055926 53 52 0.0 0.0 0.04 0.04 0.04 84 1016.6
20260502054925 53 51 0.0 0.0 0.04 0.04 0.04 80 1016.3
20260502053926 54 28 1.0 2.0 0.02 0.02 0.02 78 1016.8
20260502052925 54 56 1.0 1.0 0.00 0.00 0.00 73 1016.2
20260502051924 54 351 1.0 2.0 0.00 0.00 0.00 72 1015.7
20260502050925 55 39 1.0 3.0 0.00 0.00 0.00 72 1015.1
20260502045926 55 42 1.0 3.0 0.00 0.00 0.00 70 1015.6
20260502044925 55 140 1.0 2.0 0.00 0.00 0.00 70 1015.6
20260502043925 55 173 1.0 2.0 0.00 0.00 0.00 70 1015.6
20260502042926 55 59 0.0 2.0 0.00 0.00 0.00 71 1015.5
20260502041925 55 72 0.0 2.0 0.00 0.00 0.00 73 1015.6
20260502040926 55 42 1.0 1.0 0.00 0.00 0.00 73 1015.6
20260502035926 55 51 1.0 2.0 0.00 0.00 0.00 68 1015.9
20260502034925 55 57 1.0 1.0 0.00 0.00 0.00 68 1015.8
20260502033926 55 67 1.0 3.0 0.00 0.00 0.00 67 1015.7
20260502032925 56 59 1.0 3.0 0.00 0.00 0.00 68 1015.8
20260502031926 56 32 2.0 3.0 0.00 0.00 0.00 67 1015.9
20260502030925 57 35 2.0 3.0 0.00 0.00 0.00 61 1015.7
20260502025924 57 42 2.0 3.0 0.00 0.00 0.00 59 1015.6
20260502024925 58 40 2.0 3.0 0.00 0.00 0.00 57 1015.4
20260502023926 58 49 1.0 1.0 0.00 0.00 0.00 56 1015.3
20260502022925 58 97 1.0 2.0 0.00 0.00 0.00 56 1015.3
20260502021925 58 83 1.0 3.0 0.00 0.00 0.00 55 1015.3
20260502020924 59 86 1.0 2.0 0.00 0.00 0.00 55 1015.3
20260502015925 59 78 1.0 2.0 0.00 0.00 0.00 53 1015.5
20260502014924 59 45 0.0 2.0 0.00 0.00 0.00 53 1015.5
20260502013925 59 26 2.0 6.0 0.00 0.00 0.00 52 1015.0
20260502012924 59 25 1.0 3.0 0.00 0.00 0.00 52 1014.4
20260502011924 60 20 3.0 9.0 0.00 0.00 0.00 51 1014.3
20260502010925 60 51 2.0 3.0 0.00 0.00 0.00 50 1014.3
20260502005924 60 14 2.0 3.0 0.00 0.00 0.00 50 1014.7
20260502004925 61 23 5.0 5.0 0.00 0.00 0.00 47 1014.7
20260502003924 61 10 3.0 7.0 0.00 0.00 0.00 47 1014.5
20260502002925 62 32 2.0 5.0 0.00 0.00 0.00 46 1014.1
20260502001926 62 35 6.0 12.0 0.00 0.00 0.00 44 1014.1
20260502000925 63 10 2.0 3.0 0.00 0.00 0.00 43 1014.1
20260501235924 63 8 5.0 7.0 0.00 0.00 0.00 42 1014.1
20260501234925 64 14 5.0 13.0 0.00 0.00 0.00 39 1013.9
20260501233925 66 1 3.0 15.0 0.00 0.00 0.00 36 1013.6
20260501232924 66 33 2.0 5.0 0.00 0.00 0.00 35 1013.5
20260501231925 66 38 2.0 2.0 0.00 0.00 0.00 34 1013.4
20260501230925 66 34 1.0 2.0 0.00 0.00 0.00 34 1013.3
20260501225926 67 34 2.0 3.0 0.00 0.00 0.00 32 1012.9
20260501224925 67 36 2.0 3.0 0.00 0.00 0.00 33 1012.9
20260501223926 68 61 2.0 3.0 0.00 0.00 0.00 32 1012.8
20260501222925 68 283 1.0 1.0 0.00 0.00 0.00 30 1012.8
20260501221925 68 298 0.0 1.0 0.00 0.00 0.00 29 1012.7
20260501220924 69 285 2.0 3.0 0.00 0.00 0.00 29 1012.6
20260501215925 68 7 1.0 2.0 0.00 0.00 0.00 30 1012.7
20260501214924 68 289 5.0 6.0 0.00 0.00 0.00 29 1012.5
20260501213925 69 267 0.0 1.0 0.00 0.00 0.00 30 1012.7
20260501212926 69 273 0.0 2.0 0.00 0.00 0.00 28 1012.8
20260501211924 69 299 0.0 1.0 0.00 0.00 0.00 33 1013.0
20260501210925 69 273 0.0 1.0 0.00 0.00 0.00 27 1013.3
20260501205925 69 19 1.0 3.0 0.00 0.00 0.00 31 1013.3
20260501204925 69 309 1.0 1.0 0.00 0.00 0.00 31 1013.5
20260501203924 69 18 3.0 5.0 0.00 0.00 0.00 29 1013.8
20260501202926 68 26 3.0 5.0 0.00 0.00 0.00 28 1014.0
20260501201926 68 25 1.0 3.0 0.00 0.00 0.00 30 1014.3
20260501200925 68 357 1.0 2.0 0.00 0.00 0.00 30 1014.4
20260501195924 68 211 1.0 3.0 0.00 0.00 0.00 32 1014.7
20260501194924 68 274 0.0 2.0 0.00 0.00 0.00 33 1015.0
20260501193925 67 311 1.0 1.0 0.00 0.00 0.00 34 1015.2
20260501192924 67 176 1.0 3.0 0.00 0.00 0.00 34 1015.3
20260501191926 67 18 2.0 3.0 0.00 0.00 0.00 34 1015.5
20260501190924 67 237 0.0 1.0 0.00 0.00 0.00 33 1015.5
20260501185925 67 284 0.0 0.0 0.00 0.00 0.00 37 1015.4
20260501184924 66 287 0.0 1.0 0.00 0.00 0.00 35 1015.6
20260501183924 66 298 0.0 2.0 0.00 0.00 0.00 34 1015.7
20260501182926 66 304 1.0 2.0 0.00 0.00 0.00 34 1015.8
20260501181924 66 295 1.0 2.0 0.00 0.00 0.00 33 1015.9
20260501180925 66 319 1.0 1.0 0.00 0.00 0.00 36 1015.9
20260501175924 66 24 3.0 3.0 0.00 0.00 0.00 33 1016.0
20260501174925 66 31 3.0 5.0 0.00 0.00 0.00 33 1016.3
20260501173924 65 9 1.0 5.0 0.00 0.00 0.00 36 1016.4
20260501172925 65 305 1.0 3.0 0.00 0.00 0.00 37 1016.4
20260501171925 65 18 2.0 3.0 0.00 0.00 0.00 38 1016.4
20260501170924 66 277 0.0 1.0 0.00 0.00 0.00 37 1016.5
20260501165925 65 42 2.0 5.0 0.00 0.00 0.00 36 1016.5
20260501164924 64 331 0.0 0.0 0.00 0.00 0.00 44 1016.5
20260501163925 63 1 2.0 5.0 0.00 0.00 0.00 41 1016.6
20260501162924 64 74 0.0 3.0 0.00 0.00 0.00 51 1016.5
20260501161924 64 37 2.0 5.0 0.00 0.00 0.00 43 1016.5